Pierre, SD

8:44 PM CDT on June 27, 2017 (GMT -0500)
Pierre Regional

Weather History for KPIR - March, 2013

Change the Weather History Date:

Friday, March 29, 2013

  Actual Average Record
Temperature  
Mean Temperature 48 °F 40 °F  
Max Temperature 72 °F 51 °F 80 °F (1943)
Min Temperature 23 °F 28 °F -7 °F (1965)
Degree Days  
Heating Degree Days 17 25  
Month to date heating degree days 1052 897  
Since 1 July heating degree days 6476 6395  
Cooling Degree Days 0 0  
Month to date cooling degree days 0 0  
Year to date cooling degree days 0 0  
Moisture  
Dew Point 28 °F    
Average Humidity 56    
Maximum Humidity 92    
Minimum Humidity 19    
Precipitation  
Precipitation 0.00 in 0.06 in 1.48 in (1998)
Month to date precipitation 0.15 1.12  
Year to date precipitation 1.81 2.13  
Snow  
Snow 0.00 in 0.10 in 5.50 in (1934)
Month to date snowfall 3.0 5.6  
Since 1 July snowfall 34.7 27.4  
Snow Depth 0.00 in    
Sea Level Pressure  
Sea Level Pressure 30.02 in    
Wind  
Wind Speed 8 mph (ESE)    
Max Wind Speed 21 mph    
Max Gust Speed 25 mph    
Visibility 8 miles    
Events      
T = Trace of Precipitation, MM = Missing Value Source: NWS Daily Summary

Daily Weather History Graph

Daily Weather History Graph

Search for Another Location

Airport or City:

Trip Planner

Search our weather history database for the weather conditions in past years. The results will help you decide how hot, cold, wet, or windy it might be!

Date:

Astronomy

Mar. 29, 2013 Rise Set
Actual Time 7:27 AM CDT 8:05 PM CDT
Civil Twilight 6:58 AM CDT 8:34 PM CDT
Nautical Twilight 6:23 AM CDT 9:09 PM CDT
Astronomical Twilight 5:47 AM CDT 9:45 PM CDT
Moon 11:15 PM CDT (3/29) 8:30 AM CDT (3/29)
Length of Visible Light 13h 36m
Length of Day
12h 37m
Waning Gibbous, 93% of the Moon is Illuminated
Mar 29
Waning Gibbous
Apr 2
Last Quarter
Apr 10
New
Apr 18
First Quarter
Apr 25
Full

Hourly Weather History & Observations

Time (CDT) Temp. Windchill Dew Point Humidity Pressure Visibility Wind Dir Wind Speed Gust Speed Precip Events Conditions
12:53 AM 28.0 °F 22.8 °F 25.0 °F 88% 30.14 in 5.0 mi NE 4.6 mph - N/A   Clear
1:53 AM 27.0 °F 20.5 °F 24.1 °F 89% 30.13 in 6.0 mi NE 5.8 mph - N/A   Clear
2:53 AM 25.0 °F 19.3 °F 23.0 °F 92% 30.12 in 6.0 mi NE 4.6 mph - N/A   Clear
3:53 AM 25.0 °F 18.1 °F 23.0 °F 92% 30.10 in 7.0 mi NE 5.8 mph - N/A   Clear
4:53 AM 26.1 °F 19.4 °F 23.0 °F 88% 30.10 in 7.0 mi NNE 5.8 mph - N/A   Clear
5:53 AM 24.1 °F 18.2 °F 21.0 °F 88% 30.10 in 6.0 mi NE 4.6 mph - N/A   Clear
6:53 AM 26.1 °F - 23.0 °F 88% 30.10 in 7.0 mi Calm Calm - N/A   Clear
7:53 AM 25.0 °F - 21.9 °F 88% 30.12 in 5.0 mi Calm Calm - N/A   Clear
8:53 AM 32.0 °F 28.7 °F 28.0 °F 85% 30.11 in 6.0 mi ENE 3.5 mph - N/A   Clear
9:53 AM 39.0 °F 34.8 °F 30.0 °F 70% 30.11 in 9.0 mi East 5.8 mph - N/A   Clear
10:53 AM 44.1 °F 42.5 °F 30.0 °F 58% 30.10 in 10.0 mi SSE 3.5 mph - N/A   Clear
11:53 AM 51.1 °F - 30.0 °F 44% 30.07 in 10.0 mi Variable 5.8 mph - N/A   Clear
12:53 PM 57.9 °F - 30.9 °F 36% 30.05 in 10.0 mi ESE 8.1 mph - N/A   Clear
1:53 PM 64.0 °F - 30.9 °F 29% 30.00 in 10.0 mi ESE 9.2 mph - N/A   Clear
2:53 PM 68.0 °F - 30.0 °F 24% 29.97 in 10.0 mi SE 11.5 mph 19.6 mph N/A   Clear
3:53 PM 71.1 °F - 26.1 °F 19% 29.93 in 10.0 mi SSE 15.0 mph 23.0 mph N/A   Clear
4:53 PM 71.1 °F - 28.0 °F 20% 29.91 in 10.0 mi SE 11.5 mph - N/A   Clear
5:53 PM 70.0 °F - 28.9 °F 22% 29.90 in 10.0 mi SE 10.4 mph - N/A   Clear
6:53 PM 66.0 °F - 33.1 °F 29% 29.89 in 10.0 mi SSE 13.8 mph - N/A   Clear
7:53 PM 63.0 °F - 32.0 °F 31% 29.90 in 10.0 mi SW 10.4 mph - N/A   Clear
8:53 PM 59.0 °F - 33.1 °F 38% 29.88 in 10.0 mi SSW 5.8 mph - N/A   Clear
9:53 PM 57.0 °F - 33.1 °F 40% 29.89 in 10.0 mi SW 8.1 mph - N/A   Mostly Cloudy
10:53 PM 50.0 °F - 34.0 °F 54% 29.93 in 10.0 mi NW 12.7 mph - N/A   Clear
11:53 PM 39.0 °F 29.9 °F 33.1 °F 79% 29.94 in 9.0 mi NW 17.3 mph - N/A   Clear